Home   Weather   Tucumán   Past weeks
Flag for Argentina

Past Weather in Tucumán, Tucumán, Argentina — Yesterday and Last 2 Weeks

Now
64 °F

Clear.


Feels Like: 64 °F
Forecast: 85 / 56 °F
Wind: 7 mph from Northeast

Location: Tucuman Aerodrome

Current Time: Oct 20, 2019 at 11:51:54 pm

Latest Report: Oct 20, 2019 at 11:00 pm


Visibility: 5 mi

Pressure: 30.04 "Hg

Humidity: 68%

Dew Point: 54 °F

Location of TucumánLocation

Past Weather in Tucumán — Graph

°F

Tucumán Temperature Yesterday

Maximum temperature yesterday: 75 °F (at 3:00 pm)
Minimum temperature yesterday: 59 °F (at 12:00 am)
Average temperature yesterday: 66 °F

High & Low Weather Summary for the Past Weeks

 TemperatureHumidityPressure
High104 °F (Oct 11, 5:00 pm)100% (Oct 14, 6:00 am)30.30 "Hg (Oct 14, 6:00 am)
Low46 °F (Oct 15, 8:00 am)23% (Oct 10, 3:00 pm)29.42 "Hg (Oct 12, 4:00 pm)
Average70 °F62%29.95 "Hg
* Reported Oct 5 11:00 pm — Oct 20 10:00 pm, Tucumán. Weather by CustomWeather, © 2019

Note: Actual official high and low records may vary slightly from our data, if they occured in-between our weather recording intervals... More about our weather records

Advertising

Tucumán Weather History for the Previous 24 Hours

Scroll right to see more
 ConditionsComfort  
Time TempWeatherWind HumidityBarometerVisibility
10:00 pm
Sun, Oct 20
64 °FClear.5 mph78%30.04 "Hg5 mi
9:00 pm68 °FClear.No wind64%30.01 "Hg5 mi
8:00 pm72 °FClear.No wind57%29.98 "Hg5 mi
7:00 pm75 °FPassing clouds.5 mph50%29.95 "Hg5 mi
6:00 pm75 °FScattered clouds.3 mph54%29.95 "Hg5 mi
5:00 pm75 °FScattered clouds.5 mph54%29.95 "Hg5 mi
4:00 pm73 °FBroken clouds.9 mph57%29.95 "Hg5 mi
3:00 pm73 °FBroken clouds.9 mph53%29.92 "Hg5 mi
2:00 pm73 °FBroken clouds.10 mph57%29.92 "Hg5 mi
1:00 pm72 °FScattered clouds.5 mph61%29.95 "Hg5 mi
12:00 pm72 °FScattered clouds.6 mph65%29.95 "Hg5 mi
11:00 am66 °FPartly sunny.8 mph73%29.98 "Hg5 mi
10:00 am64 °FOvercast.9 mph78%29.98 "Hg5 mi
9:00 am63 °FPartly sunny.3 mph77%29.95 "Hg5 mi
8:00 am61 °FOvercast.2 mph83%29.95 "Hg5 mi
7:00 am61 °FMore clouds than sun.No wind83%29.95 "Hg5 mi
6:00 am61 °FMostly cloudy.7 mph83%29.95 "Hg5 mi
5:00 am61 °FClear.7 mph77%29.95 "Hg5 mi
4:00 am61 °FClear.12 mph83%29.95 "Hg5 mi
3:00 am63 °FClear.7 mph77%29.98 "Hg5 mi
2:00 am63 °FClear.7 mph77%29.98 "Hg4 mi
1:00 am63 °FClear.No wind83%30.01 "Hg4 mi
12:00 am63 °FClear.7 mph83%30.04 "Hg4 mi
11:00 pm
Sat, Oct 19
63 °FClear.6 mph83%30.04 "Hg4 mi
Weather by CustomWeather, © 2019

See weather overview